| time (UTC) | temp C | wind direction | speed KPH | gust KPH | rain 1hr cm | rain 24hr cm | rain mn cm | humidity % | barometer mb |
| 20260507075901 | 12 | 44 | 1.6 | 11.3 | 0.00 | 0.00 | 0.00 | 44 | 1020.4 |
| 20260507075359 | 12 | 44 | 1.6 | 9.7 | 0.00 | 0.00 | 0.00 | 44 | 1020.3 |
| 20260507074634 | 13 | 33 | 1.6 | 6.4 | 0.00 | 0.00 | 0.00 | 44 | 1020.3 |
| 20260507074134 | 13 | 38 | 1.6 | 6.4 | 0.00 | 0.00 | 0.00 | 44 | 1020.3 |
| 20260507074125 | 13 | 38 | 3.2 | 9.7 | 0.00 | 0.00 | 0.00 | 44 | 1020.3 |
| 20260507073131 | 13 | 103 | 1.6 | 9.7 | 0.00 | 0.00 | 0.00 | 44 | 1020.3 |
| 20260507072629 | 13 | 9 | 1.6 | 8.0 | 0.00 | 0.00 | 0.00 | 44 | 1020.3 |
| 20260507072129 | 12 | 55 | 1.6 | 14.5 | 0.00 | 0.00 | 0.00 | 44 | 1020.3 |
| 20260507071854 | 13 | 53 | 1.6 | 14.5 | 0.00 | 0.00 | 0.00 | 44 | 1020.3 |
| 20260507071129 | 13 | 52 | 1.6 | 11.3 | 0.00 | 0.00 | 0.00 | 44 | 1020.3 |
| 20260507070627 | 13 | 55 | 1.6 | 11.3 | 0.00 | 0.00 | 0.00 | 44 | 1020.3 |
| 20260507070126 | 13 | 109 | 1.6 | 9.7 | 0.00 | 0.00 | 0.00 | 44 | 1020.4 |
| 20260507065849 | 13 | 12 | 1.6 | 14.5 | 0.00 | 0.00 | 0.00 | 43 | 1020.3 |
| 20260507065128 | 13 | 40 | 1.6 | 14.5 | 0.00 | 0.00 | 0.00 | 43 | 1020.3 |
| 20260507064626 | 13 | 54 | 0.0 | 12.9 | 0.00 | 0.00 | 0.00 | 43 | 1020.2 |
| 20260507064127 | 13 | 33 | 0.0 | 3.2 | 0.00 | 0.00 | 0.00 | 44 | 1020.1 |
| 20260507063620 | 13 | 24 | 0.0 | 6.4 | 0.00 | 0.00 | 0.00 | 44 | 1020.1 |
| 20260507063120 | 13 | 24 | 0.0 | 6.4 | 0.00 | 0.00 | 0.00 | 44 | 1020.1 |
| 20260507062620 | 13 | 24 | 0.0 | 3.2 | 0.00 | 0.00 | 0.00 | 43 | 1019.9 |
| 20260507062121 | 13 | 24 | 0.0 | 4.8 | 0.00 | 0.00 | 0.00 | 41 | 1019.9 |
| 20260507061621 | 13 | 24 | 1.6 | 4.8 | 0.00 | 0.00 | 0.00 | 42 | 1019.9 |
| 20260507061121 | 13 | 25 | 1.6 | 8.0 | 0.00 | 0.00 | 0.00 | 43 | 1019.8 |
| 20260507061110 | 13 | 5 | 0.0 | 8.0 | 0.00 | 0.00 | 0.00 | 44 | 1019.8 |
| 20260507060120 | 13 | 123 | 0.0 | 3.2 | 0.00 | 0.00 | 0.00 | 41 | 1019.9 |
| 20260507055622 | 13 | 123 | 0.0 | 3.2 | 0.00 | 0.00 | 0.00 | 41 | 1019.8 |
| 20260507055120 | 13 | 123 | 0.0 | 3.2 | 0.00 | 0.00 | 0.00 | 41 | 1019.8 |
| 20260507054845 | 13 | 123 | 0.0 | 3.2 | 0.00 | 0.00 | 0.00 | 42 | 1019.7 |
| 20260507054121 | 13 | 124 | 0.0 | 3.2 | 0.00 | 0.00 | 0.00 | 42 | 1019.7 |
| 20260507053620 | 13 | 124 | 0.0 | 8.0 | 0.00 | 0.00 | 0.00 | 41 | 1019.7 |
| 20260507053121 | 13 | 169 | 1.6 | 8.0 | 0.00 | 0.00 | 0.00 | 40 | 1019.7 |
| 20260507052620 | 14 | 0 | 1.6 | 4.8 | 0.00 | 0.00 | 0.00 | 40 | 1019.6 |
| 20260507052119 | 14 | 0 | 1.6 | 4.8 | 0.00 | 0.00 | 0.00 | 40 | 1019.5 |
| 20260507051618 | 14 | 338 | 0.0 | 4.8 | 0.00 | 0.00 | 0.00 | 40 | 1019.6 |
| 20260507051120 | 14 | 336 | 0.0 | 3.2 | 0.00 | 0.00 | 0.00 | 40 | 1019.5 |
| 20260507050611 | 14 | 336 | 0.0 | 3.2 | 0.00 | 0.00 | 0.00 | 40 | 1019.5 |
| 20260507050110 | 14 | 265 | 0.0 | 1.6 | 0.00 | 0.00 | 0.00 | 40 | 1019.5 |
| 20260507045611 | 14 | 265 | 0.0 | 3.2 | 0.00 | 0.00 | 0.00 | 39 | 1019.5 |
| 20260507045109 | 14 | 265 | 0.0 | 3.2 | 0.00 | 0.00 | 0.00 | 38 | 1019.3 |
| 20260507044606 | 14 | 263 | 0.0 | 0.0 | 0.00 | 0.00 | 0.00 | 37 | 1019.4 |
| 20260507044105 | 14 | 263 | 0.0 | 1.6 | 0.00 | 0.00 | 0.00 | 37 | 1019.3 |
| 20260507043605 | 14 | 263 | 0.0 | 3.2 | 0.00 | 0.00 | 0.00 | 36 | 1019.3 |
| 20260507043552 | 14 | 263 | 0.0 | 3.2 | 0.00 | 0.00 | 0.00 | 36 | 1019.1 |
| 20260507042603 | 15 | 263 | 0.0 | 1.6 | 0.00 | 0.00 | 0.00 | 36 | 1019.0 |
| 20260507042105 | 15 | 263 | 0.0 | 1.6 | 0.00 | 0.00 | 0.00 | 35 | 1019.0 |
| 20260507042054 | 15 | 263 | 0.0 | 1.6 | 0.00 | 0.00 | 0.00 | 35 | 1019.0 |
| 20260507041104 | 15 | 263 | 0.0 | 0.0 | 0.00 | 0.00 | 0.00 | 35 | 1018.9 |
| 20260507040831 | 15 | 263 | 0.0 | 1.6 | 0.00 | 0.00 | 0.00 | 35 | 1018.9 |
| 20260507040104 | 16 | 263 | 0.0 | 1.6 | 0.00 | 0.00 | 0.00 | 34 | 1018.7 |
| 20260507035826 | 16 | 263 | 0.0 | 0.0 | 0.00 | 0.00 | 0.00 | 34 | 1018.7 |
| 20260507035103 | 16 | 263 | 0.0 | 1.6 | 0.00 | 0.00 | 0.00 | 34 | 1018.6 |
| 20260507034603 | 16 | 263 | 0.0 | 3.2 | 0.00 | 0.00 | 0.00 | 34 | 1018.5 |
| 20260507034102 | 17 | 263 | 0.0 | 3.2 | 0.00 | 0.00 | 0.00 | 33 | 1018.3 |
| 20260507033605 | 17 | 263 | 0.0 | 0.0 | 0.00 | 0.00 | 0.00 | 34 | 1018.1 |
| 20260507033100 | 17 | 263 | 0.0 | 0.0 | 0.00 | 0.00 | 0.00 | 32 | 1018.0 |
| 20260507032559 | 17 | 263 | 0.0 | 1.6 | 0.00 | 0.00 | 0.00 | 31 | 1018.0 |
| 20260507032325 | 18 | 263 | 0.0 | 1.6 | 0.00 | 0.00 | 0.00 | 32 | 1017.9 |
| 20260507031559 | 18 | 263 | 0.0 | 1.6 | 0.00 | 0.00 | 0.00 | 30 | 1017.8 |
| 20260507031057 | 18 | 263 | 0.0 | 1.6 | 0.00 | 0.00 | 0.00 | 30 | 1017.7 |
| 20260507030558 | 19 | 263 | 0.0 | 0.0 | 0.00 | 0.00 | 0.00 | 28 | 1017.5 |
| 20260507030056 | 19 | 263 | 0.0 | 0.0 | 0.00 | 0.00 | 0.00 | 28 | 1017.4 |
| 20260507025553 | 20 | 263 | 0.0 | 0.0 | 0.00 | 0.03 | 0.00 | 27 | 1017.3 |
| 20260507025053 | 20 | 263 | 0.0 | 1.6 | 0.00 | 0.03 | 0.00 | 27 | 1017.2 |
| 20260507024552 | 20 | 263 | 1.6 | 4.8 | 0.00 | 0.03 | 0.00 | 26 | 1017.1 |
| 20260507024050 | 20 | 263 | 1.6 | 4.8 | 0.00 | 0.03 | 0.00 | 26 | 1017.0 |
| 20260507023546 | 20 | 264 | 0.0 | 4.8 | 0.00 | 0.05 | 0.00 | 26 | 1017.0 |
| 20260507023043 | 21 | 265 | 0.0 | 4.8 | 0.00 | 0.05 | 0.00 | 25 | 1016.7 |
| 20260507022542 | 21 | 266 | 1.6 | 6.4 | 0.00 | 0.05 | 0.00 | 25 | 1016.7 |
| 20260507022041 | 21 | 266 | 3.2 | 17.7 | 0.00 | 0.05 | 0.00 | 24 | 1016.6 |
| 20260507021806 | 21 | 270 | 1.6 | 17.7 | 0.00 | 0.05 | 0.00 | 24 | 1016.5 |
| 20260507021038 | 21 | 285 | 1.6 | 9.7 | 0.00 | 0.05 | 0.00 | 23 | 1016.4 |
| 20260507020545 | 22 | 279 | 1.6 | 9.7 | 0.00 | 0.05 | 0.00 | 23 | 1016.3 |
| 20260507020043 | 22 | 273 | 1.6 | 9.7 | 0.00 | 0.05 | 0.00 | 23 | 1016.3 |
| 20260507015540 | 22 | 281 | 1.6 | 12.9 | 0.00 | 0.05 | 0.00 | 22 | 1016.2 |
| 20260507015037 | 22 | 277 | 1.6 | 12.9 | 0.00 | 0.05 | 0.00 | 22 | 1016.1 |
| 20260507014537 | 22 | 264 | 3.2 | 11.3 | 0.00 | 0.05 | 0.00 | 22 | 1016.1 |
| 20260507014034 | 23 | 273 | 1.6 | 11.3 | 0.00 | 0.05 | 0.00 | 21 | 1015.8 |
| 20260507013529 | 23 | 172 | 3.2 | 12.9 | 0.00 | 0.05 | 0.00 | 21 | 1015.7 |
| 20260507013015 | 23 | 172 | 3.2 | 12.9 | 0.00 | 0.05 | 0.00 | 21 | 1015.6 |
| 20260507012513 | 23 | 196 | 3.2 | 11.3 | 0.00 | 0.05 | 0.00 | 21 | 1015.6 |
| 20260507012020 | 23 | 170 | 4.8 | 11.3 | 0.00 | 0.05 | 0.00 | 21 | 1015.5 |
| 20260507011518 | 23 | 182 | 3.2 | 11.3 | 0.00 | 0.05 | 0.00 | 20 | 1015.6 |
| 20260507011239 | 23 | 180 | 3.2 | 11.3 | 0.00 | 0.05 | 0.00 | 20 | 1015.6 |
| 20260507010515 | 23 | 181 | 6.4 | 14.5 | 0.00 | 0.05 | 0.00 | 20 | 1015.5 |
| 20260507010013 | 23 | 181 | 4.8 | 14.5 | 0.00 | 0.05 | 0.00 | 20 | 1015.4 |
| 20260507005510 | 24 | 200 | 4.8 | 17.7 | 0.00 | 0.05 | 0.00 | 20 | 1015.4 |
| 20260507005011 | 23 | 182 | 6.4 | 17.7 | 0.00 | 0.05 | 0.00 | 20 | 1015.4 |
| 20260507004509 | 24 | 158 | 4.8 | 9.7 | 0.00 | 0.05 | 0.00 | 20 | 1015.4 |
| 20260507004010 | 24 | 164 | 3.2 | 11.3 | 0.00 | 0.05 | 0.00 | 20 | 1015.4 |
| 20260507003725 | 24 | 169 | 3.2 | 11.3 | 0.00 | 0.05 | 0.00 | 20 | 1015.4 |
| 20260507003004 | 25 | 268 | 4.8 | 14.5 | 0.00 | 0.05 | 0.00 | 20 | 1015.4 |
| 20260507002504 | 24 | 198 | 4.8 | 14.5 | 0.00 | 0.05 | 0.00 | 20 | 1015.3 |
| 20260507002004 | 25 | 185 | 4.8 | 16.1 | 0.00 | 0.05 | 0.00 | 20 | 1015.3 |
| 20260507001504 | 24 | 239 | 6.4 | 16.1 | 0.00 | 0.05 | 0.00 | 20 | 1015.3 |
| 20260507001005 | 24 | 85 | 4.8 | 20.9 | 0.00 | 0.05 | 0.00 | 21 | 1015.2 |
| 20260507000504 | 25 | 180 | 3.2 | 20.9 | 0.00 | 0.05 | 0.00 | 20 | 1015.2 |
| 20260507000005 | 25 | 250 | 4.8 | 20.9 | 0.00 | 0.05 | 0.00 | 20 | 1015.2 |
| 20260506235504 | 25 | 172 | 4.8 | 24.1 | 0.00 | 0.05 | 0.00 | 19 | 1015.3 |
| 20260506235000 | 25 | 196 | 3.2 | 24.1 | 0.00 | 0.05 | 0.00 | 19 | 1015.3 |
| 20260506234455 | 25 | 225 | 3.2 | 9.7 | 0.00 | 0.05 | 0.00 | 19 | 1015.0 |
| 20260506233948 | 25 | 229 | 1.6 | 9.7 | 0.00 | 0.05 | 0.00 | 20 | 1015.2 |
| 20260506233705 | 25 | 176 | 3.2 | 11.3 | 0.00 | 0.05 | 0.00 | 19 | 1015.2 |
| 20260506232939 | 25 | 259 | 3.2 | 12.9 | 0.00 | 0.05 | 0.00 | 19 | 1015.3 |
| 20260506232438 | 25 | 268 | 3.2 | 12.9 | 0.00 | 0.05 | 0.00 | 20 | 1015.3 |
| 20260506231933 | 25 | 259 | 4.8 | 14.5 | 0.00 | 0.05 | 0.00 | 20 | 1015.3 |
| 20260506231433 | 24 | 232 | 3.2 | 14.5 | 0.00 | 0.05 | 0.00 | 20 | 1015.4 |
| 20260506230932 | 25 | 194 | 3.2 | 9.7 | 0.00 | 0.05 | 0.00 | 20 | 1015.4 |
| 20260506230431 | 24 | 298 | 4.8 | 12.9 | 0.00 | 0.05 | 0.00 | 21 | 1015.5 |
| 20260506225931 | 25 | 175 | 4.8 | 12.9 | 0.00 | 0.05 | 0.00 | 20 | 1015.5 |
| 20260506225431 | 24 | 139 | 3.2 | 12.9 | 0.00 | 0.05 | 0.00 | 21 | 1015.4 |
| 20260506224931 | 24 | 271 | 6.4 | 16.1 | 0.00 | 0.05 | 0.00 | 21 | 1015.5 |
| 20260506224431 | 25 | 168 | 6.4 | 16.1 | 0.00 | 0.05 | 0.00 | 20 | 1015.6 |
| 20260506223931 | 25 | 274 | 1.6 | 14.5 | 0.00 | 0.05 | 0.00 | 20 | 1015.6 |
| 20260506223431 | 25 | 190 | 3.2 | 11.3 | 0.00 | 0.05 | 0.00 | 21 | 1015.6 |
| 20260506222931 | 25 | 166 | 3.2 | 11.3 | 0.00 | 0.05 | 0.00 | 20 | 1015.6 |
| 20260506222431 | 25 | 150 | 3.2 | 11.3 | 0.00 | 0.05 | 0.00 | 21 | 1015.8 |
| 20260506221932 | 23 | 169 | 6.4 | 22.5 | 0.00 | 0.05 | 0.00 | 22 | 1015.8 |
| 20260506221651 | 24 | 271 | 8.0 | 22.5 | 0.00 | 0.05 | 0.00 | 21 | 1016.0 |
| 20260506221151 | 24 | 182 | 4.8 | 16.1 | 0.00 | 0.05 | 0.00 | 20 | 1016.1 |
| 20260506220431 | 24 | 176 | 4.8 | 14.5 | 0.00 | 0.05 | 0.00 | 22 | 1016.0 |
| 20260506215925 | 24 | 258 | 3.2 | 14.5 | 0.00 | 0.05 | 0.00 | 21 | 1016.1 |
| 20260506215420 | 24 | 188 | 1.6 | 9.7 | 0.00 | 0.05 | 0.00 | 21 | 1016.3 |
| 20260506214920 | 23 | 186 | 3.2 | 17.7 | 0.00 | 0.05 | 0.00 | 22 | 1016.3 |
| 20260506214648 | 23 | 186 | 4.8 | 19.3 | 0.00 | 0.05 | 0.00 | 22 | 1016.5 |
| 20260506214147 | 23 | 169 | 4.8 | 19.3 | 0.00 | 0.05 | 0.00 | 22 | 1016.5 |
| 20260506213905 | 23 | 268 | 6.4 | 17.7 | 0.00 | 0.05 | 0.00 | 22 | 1016.7 |
| 20260506212920 | 23 | 178 | 4.8 | 17.7 | 0.00 | 0.05 | 0.00 | 22 | 1016.6 |
| 20260506212420 | 23 | 239 | 4.8 | 14.5 | 0.00 | 0.05 | 0.00 | 23 | 1016.7 |
| 20260506211920 | 23 | 165 | 6.4 | 22.5 | 0.00 | 0.05 | 0.00 | 22 | 1016.9 |
| 20260506211420 | 23 | 179 | 4.8 | 22.5 | 0.00 | 0.05 | 0.00 | 22 | 1017.1 |
| 20260506211412 | 24 | 291 | 4.8 | 16.1 | 0.00 | 0.05 | 0.00 | 23 | 1017.2 |
| 20260506210646 | 23 | 153 | 4.8 | 16.1 | 0.00 | 0.05 | 0.00 | 23 | 1017.2 |
| 20260506205919 | 23 | 190 | 4.8 | 16.1 | 0.00 | 0.05 | 0.00 | 23 | 1017.3 |
| 20260506205419 | 22 | 270 | 4.8 | 16.1 | 0.00 | 0.05 | 0.00 | 23 | 1017.3 |
| 20260506205150 | 22 | 269 | 3.2 | 11.3 | 0.00 | 0.05 | 0.00 | 25 | 1017.2 |
| 20260506204420 | 22 | 157 | 4.8 | 20.9 | 0.00 | 0.05 | 0.00 | 23 | 1017.3 |
| 20260506203920 | 22 | 272 | 4.8 | 20.9 | 0.00 | 0.05 | 0.00 | 24 | 1017.3 |
| 20260506203418 | 22 | 272 | 3.2 | 17.7 | 0.00 | 0.05 | 0.00 | 25 | 1017.3 |
| 20260506202918 | 22 | 302 | 8.0 | 22.5 | 0.00 | 0.05 | 0.00 | 25 | 1017.3 |
| 20260506202417 | 22 | 163 | 8.0 | 22.5 | 0.00 | 0.05 | 0.00 | 25 | 1017.4 |
| 20260506202142 | 23 | 194 | 3.2 | 12.9 | 0.00 | 0.05 | 0.00 | 25 | 1017.4 |
| 20260506201418 | 21 | 290 | 1.6 | 8.0 | 0.00 | 0.05 | 0.00 | 26 | 1017.4 |
| 20260506200915 | 22 | 216 | 4.8 | 19.3 | 0.00 | 0.05 | 0.00 | 27 | 1017.4 |
| 20260506200416 | 21 | 287 | 6.4 | 19.3 | 0.00 | 0.05 | 0.00 | 26 | 1017.5 |
| 20260506195913 | 22 | 279 | 6.4 | 17.7 | 0.00 | 0.05 | 0.00 | 25 | 1017.5 |
| 20260506195414 | 21 | 177 | 3.2 | 17.7 | 0.00 | 0.05 | 0.00 | 26 | 1017.5 |
| 20260506194913 | 22 | 268 | 3.2 | 14.5 | 0.00 | 0.05 | 0.00 | 26 | 1017.5 |
| 20260506194413 | 22 | 184 | 3.2 | 14.5 | 0.00 | 0.05 | 0.00 | 26 | 1017.7 |
| 20260506193913 | 21 | 235 | 1.6 | 8.0 | 0.00 | 0.05 | 0.00 | 27 | 1017.7 |
| 20260506193408 | 21 | 172 | 1.6 | 11.3 | 0.00 | 0.05 | 0.00 | 27 | 1017.8 |
| 20260506192906 | 21 | 184 | 3.2 | 12.9 | 0.00 | 0.05 | 0.00 | 27 | 1017.9 |
| 20260506192404 | 21 | 291 | 3.2 | 12.9 | 0.00 | 0.05 | 0.00 | 28 | 1017.9 |
| 20260506191903 | 20 | 148 | 4.8 | 19.3 | 0.00 | 0.05 | 0.00 | 28 | 1017.9 |
| 20260506191625 | 20 | 182 | 4.8 | 19.3 | 0.00 | 0.05 | 0.00 | 28 | 1018.0 |
| 20260506190903 | 20 | 163 | 4.8 | 14.5 | 0.00 | 0.05 | 0.00 | 29 | 1018.0 |
| 20260506190403 | 21 | 170 | 1.6 | 14.5 | 0.00 | 0.05 | 0.00 | 28 | 1018.1 |
| 20260506190352 | 21 | 221 | 1.6 | 9.7 | 0.00 | 0.05 | 0.00 | 31 | 1018.1 |
| 20260506185608 | 20 | 227 | 3.2 | 12.9 | 0.00 | 0.05 | 0.00 | 32 | 1018.1 |
| 20260506184403 | 19 | 121 | 3.2 | 11.3 | 0.00 | 0.05 | 0.00 | 31 | 1018.2 |
| 20260506184127 | 18 | 135 | 4.8 | 16.1 | 0.00 | 0.05 | 0.00 | 32 | 1018.3 |
| 20260506183403 | 18 | 189 | 3.2 | 16.1 | 0.00 | 0.05 | 0.00 | 32 | 1018.5 |
| 20260506182903 | 18 | 283 | 3.2 | 12.9 | 0.00 | 0.05 | 0.00 | 32 | 1018.5 |
| 20260506182403 | 18 | 295 | 3.2 | 12.9 | 0.00 | 0.05 | 0.00 | 31 | 1018.7 |
| 20260506182126 | 19 | 196 | 6.4 | 14.5 | 0.00 | 0.05 | 0.00 | 32 | 1018.7 |
| 20260506181403 | 19 | 173 | 6.4 | 14.5 | 0.00 | 0.05 | 0.00 | 32 | 1018.8 |
| 20260506180903 | 18 | 179 | 4.8 | 17.7 | 0.00 | 0.05 | 0.00 | 33 | 1018.9 |
| 20260506180628 | 18 | 150 | 4.8 | 17.7 | 0.00 | 0.05 | 0.00 | 33 | 1019.0 |
| 20260506175903 | 17 | 270 | 3.2 | 9.7 | 0.00 | 0.05 | 0.00 | 33 | 1019.0 |
| 20260506175403 | 17 | 171 | 3.2 | 11.3 | 0.00 | 0.05 | 0.00 | 34 | 1019.0 |
| 20260506174903 | 17 | 262 | 3.2 | 11.3 | 0.00 | 0.05 | 0.00 | 35 | 1019.0 |
| 20260506174404 | 17 | 168 | 3.2 | 9.7 | 0.00 | 0.05 | 0.00 | 34 | 1018.9 |
| 20260506173903 | 17 | 184 | 4.8 | 12.9 | 0.00 | 0.05 | 0.00 | 34 | 1019.0 |
| 20260506173403 | 17 | 161 | 8.0 | 20.9 | 0.00 | 0.05 | 0.00 | 34 | 1018.9 |
| 20260506172903 | 17 | 152 | 6.4 | 20.9 | 0.00 | 0.05 | 0.00 | 34 | 1019.0 |
| 20260506172403 | 16 | 171 | 3.2 | 14.5 | 0.00 | 0.05 | 0.00 | 35 | 1019.0 |
| 20260506171903 | 16 | 141 | 3.2 | 14.5 | 0.00 | 0.05 | 0.00 | 36 | 1019.0 |
| 20260506171403 | 16 | 173 | 3.2 | 14.5 | 0.00 | 0.05 | 0.00 | 35 | 1019.0 |
| 20260506170903 | 16 | 258 | 4.8 | 24.1 | 0.00 | 0.05 | 0.00 | 37 | 1019.0 |
| 20260506170357 | 16 | 183 | 3.2 | 24.1 | 0.00 | 0.05 | 0.00 | 35 | 1019.0 |
| 20260506165851 | 16 | 176 | 1.6 | 11.3 | 0.00 | 0.05 | 0.00 | 36 | 1019.0 |
| 20260506165347 | 16 | 182 | 1.6 | 9.7 | 0.00 | 0.05 | 0.00 | 37 | 1019.0 |
| 20260506164845 | 15 | 179 | 3.2 | 11.3 | 0.00 | 0.05 | 0.00 | 38 | 1019.0 |
| 20260506164343 | 15 | 169 | 3.2 | 11.3 | 0.00 | 0.05 | 0.00 | 37 | 1019.0 |
| 20260506163840 | 15 | 200 | 3.2 | 11.3 | 0.00 | 0.05 | 0.00 | 38 | 1018.9 |
| 20260506163339 | 15 | 272 | 4.8 | 12.9 | 0.00 | 0.05 | 0.00 | 39 | 1018.9 |
| 20260506162839 | 15 | 180 | 4.8 | 12.9 | 0.00 | 0.05 | 0.00 | 40 | 1018.9 |
| 20260506162339 | 15 | 178 | 4.8 | 12.9 | 0.00 | 0.05 | 0.00 | 40 | 1018.9 |
| 20260506161839 | 15 | 175 | 3.2 | 12.9 | 0.00 | 0.05 | 0.00 | 40 | 1018.9 |
| 20260506161337 | 15 | 184 | 3.2 | 12.9 | 0.00 | 0.05 | 0.00 | 41 | 1019.0 |
| 20260506160835 | 14 | 131 | 1.6 | 9.7 | 0.00 | 0.05 | 0.00 | 41 | 1018.9 |
| 20260506160336 | 14 | 170 | 1.6 | 9.7 | 0.00 | 0.05 | 0.00 | 42 | 1019.0 |
| 20260506155833 | 13 | 171 | 1.6 | 9.7 | 0.00 | 0.05 | 0.00 | 42 | 1019.0 |
| 20260506155333 | 13 | 155 | 3.2 | 11.3 | 0.00 | 0.05 | 0.00 | 42 | 1019.0 |
| 20260506154833 | 13 | 189 | 1.6 | 11.3 | 0.00 | 0.05 | 0.00 | 43 | 1019.0 |
| 20260506154331 | 13 | 136 | 1.6 | 8.0 | 0.00 | 0.05 | 0.00 | 44 | 1019.0 |
| 20260506154058 | 13 | 155 | 0.0 | 4.8 | 0.00 | 0.05 | 0.00 | 45 | 1019.0 |
| 20260506153330 | 12 | 155 | 0.0 | 3.2 | 0.00 | 0.05 | 0.00 | 45 | 1018.9 |
| 20260506152831 | 12 | 155 | 0.0 | 4.8 | 0.00 | 0.05 | 0.00 | 46 | 1019.0 |
| 20260506152331 | 12 | 155 | 1.6 | 4.8 | 0.00 | 0.05 | 0.00 | 46 | 1018.9 |
| 20260506151829 | 12 | 142 | 1.6 | 8.0 | 0.00 | 0.05 | 0.00 | 49 | 1018.9 |
| 20260506151323 | 11 | 117 | 1.6 | 8.0 | 0.00 | 0.05 | 0.00 | 50 | 1018.9 |
| 20260506150817 | 11 | 125 | 1.6 | 4.8 | 0.00 | 0.05 | 0.00 | 52 | 1018.9 |
| 20260506150316 | 11 | 128 | 1.6 | 8.0 | 0.00 | 0.05 | 0.00 | 54 | 1018.9 |
| 20260506145814 | 11 | 127 | 1.6 | 8.0 | 0.00 | 0.05 | 0.00 | 55 | 1018.9 |
| 20260506145313 | 10 | 127 | 3.2 | 9.7 | 0.00 | 0.05 | 0.00 | 56 | 1018.9 |
| 20260506144812 | 10 | 129 | 3.2 | 9.7 | 0.00 | 0.05 | 0.00 | 57 | 1018.8 |
| 20260506144535 | 10 | 86 | 1.6 | 6.4 | 0.00 | 0.05 | 0.00 | 58 | 1018.8 |
| 20260506143810 | 10 | 146 | 1.6 | 11.3 | 0.00 | 0.05 | 0.00 | 59 | 1018.8 |
| 20260506143308 | 9 | 138 | 1.6 | 14.5 | 0.00 | 0.05 | 0.00 | 60 | 1018.7 |
| 20260506142806 | 9 | 122 | 3.2 | 14.5 | 0.00 | 0.05 | 0.00 | 60 | 1018.7 |
| 20260506142306 | 8 | 139 | 3.2 | 11.3 | 0.00 | 0.05 | 0.00 | 61 | 1018.7 |
| 20260506141805 | 8 | 144 | 1.6 | 8.0 | 0.00 | 0.05 | 0.00 | 61 | 1018.8 |
| 20260506141304 | 8 | 131 | 1.6 | 9.7 | 0.00 | 0.05 | 0.00 | 62 | 1018.8 |
| 20260506141034 | 8 | 55 | 1.6 | 11.3 | 0.00 | 0.05 | 0.00 | 62 | 1018.7 |
| 20260506140304 | 8 | 28 | 1.6 | 11.3 | 0.00 | 0.05 | 0.00 | 62 | 1018.6 |
| 20260506135804 | 8 | 107 | 1.6 | 6.4 | 0.00 | 0.05 | 0.00 | 62 | 1018.5 |
| 20260506135306 | 8 | 105 | 1.6 | 6.4 | 0.00 | 0.05 | 0.00 | 63 | 1018.6 |
| 20260506134804 | 7 | 136 | 1.6 | 8.0 | 0.00 | 0.05 | 0.00 | 64 | 1018.5 |
| 20260506134304 | 7 | 125 | 1.6 | 9.7 | 0.00 | 0.05 | 0.00 | 64 | 1018.6 |
| 20260506133805 | 7 | 64 | 3.2 | 11.3 | 0.00 | 0.05 | 0.00 | 65 | 1018.3 |
| 20260506133301 | 7 | 30 | 3.2 | 11.3 | 0.00 | 0.05 | 0.00 | 65 | 1018.3 |
| 20260506132756 | 7 | 93 | 3.2 | 9.7 | 0.00 | 0.05 | 0.00 | 66 | 1018.3 |
| 20260506132250 | 6 | 99 | 1.6 | 9.7 | 0.00 | 0.05 | 0.00 | 67 | 1018.2 |
| 20260506131744 | 6 | 28 | 1.6 | 12.9 | 0.00 | 0.05 | 0.00 | 68 | 1018.2 |
| 20260506131238 | 6 | 109 | 1.6 | 12.9 | 0.00 | 0.05 | 0.00 | 68 | 1018.2 |
| 20260506130733 | 6 | 24 | 3.2 | 14.5 | 0.00 | 0.05 | 0.00 | 68 | 1018.2 |
| 20260506130505 | 6 | 88 | 3.2 | 14.5 | 0.00 | 0.05 | 0.00 | 68 | 1018.1 |
| 20260506125734 | 6 | 34 | 1.6 | 16.1 | 0.00 | 0.05 | 0.00 | 69 | 1018.1 |
| 20260506125720 | 6 | 20 | 1.6 | 16.1 | 0.00 | 0.05 | 0.00 | 69 | 1018.2 |
| 20260506125004 | 6 | 355 | 1.6 | 11.3 | 0.00 | 0.05 | 0.00 | 69 | 1018.1 |
| 20260506124234 | 6 | 23 | 1.6 | 17.7 | 0.00 | 0.05 | 0.00 | 70 | 1018.0 |
| 20260506123734 | 6 | 115 | 1.6 | 17.7 | 0.00 | 0.05 | 0.00 | 69 | 1017.9 |
| 20260506123235 | 6 | 21 | 1.6 | 6.4 | 0.00 | 0.05 | 0.00 | 69 | 1017.9 |
| 20260506122734 | 6 | 19 | 0.0 | 6.4 | 0.00 | 0.05 | 0.00 | 69 | 1017.9 |
| 20260506122234 | 6 | 30 | 0.0 | 8.0 | 0.00 | 0.05 | 0.00 | 69 | 1017.8 |
| 20260506122006 | 6 | 30 | 1.6 | 8.0 | 0.00 | 0.05 | 0.00 | 70 | 1017.7 |
| 20260506121233 | 6 | 12 | 1.6 | 8.0 | 0.00 | 0.05 | 0.00 | 69 | 1017.7 |
| 20260506120732 | 6 | 49 | 1.6 | 12.9 | 0.00 | 0.05 | 0.00 | 69 | 1017.7 |
| 20260506120233 | 6 | 32 | 1.6 | 12.9 | 0.00 | 0.05 | 0.00 | 70 | 1017.7 |
| 20260506115732 | 6 | 43 | 1.6 | 9.7 | 0.00 | 0.05 | 0.00 | 70 | 1017.5 |
| 20260506115231 | 6 | 13 | 1.6 | 12.9 | 0.00 | 0.05 | 0.00 | 70 | 1017.7 |
| 20260506114731 | 6 | 36 | 1.6 | 12.9 | 0.00 | 0.05 | 0.00 | 70 | 1017.5 |
| 20260506114231 | 6 | 96 | 1.6 | 6.4 | 0.00 | 0.05 | 0.00 | 71 | 1017.7 |
| 20260506113726 | 6 | 33 | 1.6 | 14.5 | 0.00 | 0.05 | 0.00 | 70 | 1017.8 |
| 20260506113219 | 6 | 11 | 1.6 | 14.5 | 0.00 | 0.05 | 0.00 | 70 | 1017.7 |
| 20260506112714 | 6 | 32 | 1.6 | 9.7 | 0.00 | 0.05 | 0.00 | 70 | 1017.5 |
| 20260506112214 | 6 | 11 | 0.0 | 6.4 | 0.00 | 0.05 | 0.00 | 71 | 1017.5 |
| 20260506111711 | 6 | 5 | 0.0 | 4.8 | 0.00 | 0.05 | 0.00 | 71 | 1017.5 |
| 20260506111436 | 6 | 5 | 1.6 | 4.8 | 0.00 | 0.05 | 0.00 | 71 | 1017.5 |
| 20260506110708 | 6 | 5 | 1.6 | 8.0 | 0.00 | 0.05 | 0.00 | 70 | 1017.4 |
| 20260506110208 | 6 | 0 | 1.6 | 8.0 | 0.00 | 0.05 | 0.00 | 70 | 1017.4 |
| 20260506105934 | 6 | 13 | 0.0 | 4.8 | 0.00 | 0.05 | 0.00 | 70 | 1017.3 |
| 20260506105209 | 6 | 0 | 0.0 | 8.0 | 0.00 | 0.05 | 0.00 | 70 | 1017.3 |
| 20260506104707 | 6 | 338 | 1.6 | 8.0 | 0.00 | 0.05 | 0.00 | 69 | 1017.3 |
| 20260506104205 | 6 | 26 | 1.6 | 8.0 | 0.00 | 0.05 | 0.00 | 69 | 1017.3 |
| 20260506103705 | 6 | 41 | 1.6 | 8.0 | 0.00 | 0.05 | 0.00 | 70 | 1017.2 |
| 20260506103204 | 6 | 45 | 0.0 | 8.0 | 0.00 | 0.05 | 0.00 | 70 | 1017.2 |
| 20260506102705 | 6 | 57 | 0.0 | 6.4 | 0.00 | 0.05 | 0.00 | 70 | 1017.1 |
| 20260506102203 | 6 | 25 | 0.0 | 1.6 | 0.00 | 0.05 | 0.00 | 71 | 1017.1 |
| 20260506101704 | 6 | 24 | 1.6 | 9.7 | 0.00 | 0.05 | 0.00 | 71 | 1017.0 |
| 20260506101203 | 6 | 24 | 1.6 | 9.7 | 0.00 | 0.05 | 0.00 | 70 | 1017.0 |
| 20260506100659 | 6 | 36 | 0.0 | 4.8 | 0.00 | 0.05 | 0.00 | 70 | 1016.9 |
| 20260506100200 | 6 | 38 | 0.0 | 4.8 | 0.00 | 0.05 | 0.00 | 70 | 1016.9 |
| 20260506095657 | 6 | 71 | 0.0 | 4.8 | 0.00 | 0.05 | 0.00 | 70 | 1016.9 |
| 20260506095204 | 6 | 71 | 1.6 | 6.4 | 0.00 | 0.05 | 0.00 | 70 | 1016.7 |
| 20260506094700 | 6 | 26 | 0.0 | 6.4 | 0.00 | 0.05 | 0.00 | 70 | 1016.6 |
| 20260506094152 | 6 | 11 | 1.6 | 8.0 | 0.00 | 0.05 | 0.00 | 70 | 1016.5 |
| 20260506093652 | 6 | 10 | 1.6 | 8.0 | 0.00 | 0.05 | 0.00 | 70 | 1016.6 |
| 20260506093152 | 6 | 24 | 0.0 | 3.2 | 0.00 | 0.05 | 0.00 | 71 | 1016.6 |
| 20260506092652 | 6 | 23 | 0.0 | 1.6 | 0.00 | 0.05 | 0.00 | 71 | 1016.5 |
| 20260506092156 | 6 | 22 | 0.0 | 8.0 | 0.00 | 0.05 | 0.00 | 71 | 1016.5 |
| 20260506092151 | 6 | 22 | 0.0 | 4.8 | 0.00 | 0.05 | 0.00 | 71 | 1016.6 |
| 20260506091150 | 7 | 22 | 0.0 | 8.0 | 0.00 | 0.05 | 0.00 | 70 | 1016.5 |
| 20260506090650 | 7 | 19 | 0.0 | 6.4 | 0.00 | 0.05 | 0.00 | 70 | 1016.4 |
| 20260506090152 | 7 | 19 | 0.0 | 6.4 | 0.00 | 0.05 | 0.00 | 70 | 1016.5 |
| 20260506085907 | 7 | 15 | 1.6 | 16.1 | 0.00 | 0.05 | 0.00 | 70 | 1016.5 |
| 20260506085148 | 7 | 28 | 1.6 | 16.1 | 0.00 | 0.05 | 0.00 | 70 | 1016.4 |
| 20260506084919 | 7 | 344 | 0.0 | 11.3 | 0.00 | 0.05 | 0.00 | 70 | 1016.4 |
| 20260506084407 | 7 | 355 | 1.6 | 11.3 | 0.00 | 0.05 | 0.00 | 70 | 1016.3 |
| 20260506083647 | 7 | 42 | 1.6 | 6.4 | 0.00 | 0.05 | 0.00 | 70 | 1016.3 |
| 20260506083147 | 7 | 57 | 1.6 | 14.5 | 0.00 | 0.05 | 0.00 | 70 | 1016.5 |
| 20260506082642 | 7 | 36 | 3.2 | 14.5 | 0.00 | 0.05 | 0.00 | 71 | 1016.4 |
| 20260506082429 | 7 | 98 | 1.6 | 12.9 | 0.00 | 0.05 | 0.00 | 72 | 1016.5 |
| 20260506081905 | 7 | 15 | 0.0 | 8.0 | 0.00 | 0.05 | 0.00 | 72 | 1016.4 |
| 20260506081140 | 7 | 28 | 1.6 | 8.0 | 0.00 | 0.05 | 0.00 | 72 | 1016.5 |
| 20260506080639 | 7 | 23 | 1.6 | 4.8 | 0.00 | 0.05 | 0.00 | 73 | 1016.5 |